Location: New Town
(33.2710°N, 90.7534°W)
Time: 13:53:22
(UTC+00:00)

N. Korean satellite - Pass Details

Date: 23 April 2021
Orbit: 451 x 500 km, 97.2° (Epoch: 05 May)

Event Time Altitude Azimuth Distance (km) Brightness Sun altitude
Rises 10:38:21 0° 28° (NNE) 2,529 11.1 -9.7°
Reaches altitude 10° 10:40:49 10° 46° (NE) 1,636 10.5 -9.2°
Maximum altitude 10:43:29 20° 95° (E) 1,122 9.3 -8.7°
Drops below altitude 10° 10:46:07 10° 146° (SE) 1,606 9.4 -8.2°
Sets 10:48:30 0° 163° (SSE) 2,467 10.1 -7.7°
